Вернуться в каталог

DMSP 5D-2 F13 DEB

АктивенSSO
NORAD 40418·DEBRIS·🇺🇸 United States

Запущен Mar 24, 1995 с Vandenberg Space Force Base

Loading…

Ближайшие Пролёты (ближайшие 24 часа)

TLE

СвежийSource: Space-Track

Эпоха: Sep 14, 2026, 13:35 UTC

1 40418U 95015AF  26257.56633359  .00001536  00000-0  56897-3 0  9992
2 40418  98.6431 287.0495 0008942  76.6993 283.5188 14.33705970600042

Отслеживайте DMSP 5D-2 F13 DEB в реальном времени с AllMySat

Download on the App Store